CZ-3C R/B, 43875

Orbit data source: Space-Track

CZ-3C R/B, 43875 is space debris in HEO originally from a launch on Mon, 24 Dec 2018 UTC launched from the Xichang Space Center, China (XSC). Debris objects in space refer to the collection of defunct objects orbiting the Earth. Examples of debris include non-operational satellites, rocket bodies, and fragments generated from explosions, collisions, or faulty payload assembly.

Loading next visibility...
CZ-3C R/B details
Identifier
43875, 2018-110B
Orbit
HEO
Last TLE update18 hours ago
Origin
Flag of CNCASC (CN / PRC)
ManufacturerCALT
MissionSpacecraft
Bus & MotorCZ-3A STAGE 3, Unknown motor
Mass~2,800 kg wet, ~2,800 kg dry
Launch date (UTC)
2018-12-24 (6 years ago)
Launch vehicleUnknown
Launch site
Xichang Space Center, China (XSC)
Object type
Payload
Rocket body
Debris
Shape & HBRCyl + 1 Nozzle, 12.38 m
Radar Cross Section32.704 m², Large (>1 m²)

Expand to show TLE details & history

TLE from 18 hours ago
0 CZ-3C R/B
1 43875U 18110B   24339.42562481  .00015927  00000-0  18589-2 0  9998
2 43875  27.9542 146.1991 6796371 237.3268  39.3202  2.93169345 55112
Epoch: 2024-12-04T10:12Z
Definitive object data (Epoch: 2024-12-04T10:12:53.983Z)
Latitude-0.00021°
Longitude-80.83172°
Altitude11,131.464 km
Speed5.119 km/s
True Right ascension09h 44m 27s
True Declination0° 00' 01"
Sunlit
Object was in daylight at TLE epoch
Visualization TLE readout
Latitude17.47°
Longitude-44.82492°
Altitude24,920.964 km
Speed2.478 km/s
Apparent Right ascension12h 25m 47s
Apparent Declination8° 51' 01"
Sunlit
Object is in daylight
Visualization observer readout
Local Sidereal Time02:15:19
Azimuth33.717° NE
Elevation-35.045°
Doppler factor1
Orbital elements
Apogee altitude28,264.817 km
Perigee altitude229.432 km
Semi-major axis20,625.262 km
Eccentricity0.6796371
Inclination27.9542°
RAAN146.1991°
Arg. of periapsis237.3268°
True anomaly122.72964°
Mean anomaly39.3202°
Eccentric anomaly77.30922°
Mean motion0.73273 °/min
BSTAR0.0018589
Orbital period491.31 mins
Loading maneuver chart data...
Loading historical data...
Loading historical data...
Loading historical data...
Loading historical data...
Loading historical data...
Loading historical data...
Loading historical data...
Other satellites on launch #110 in the year 2018 (2018-12-24 UTC)

CZ-3C R/B Visibility forecast

Observer location: undefined°, undefined

Span
Click to sort rows by Start time (UTC) header in descending order
Start Az.
Max El. time (UTC)
Max El. Az.
Max El.
End time (UTC)
End Az.
426 mins2024-12-05 10:24:56.612Z178.643° S2024-12-05 15:28:56.612Z123.655° SE42.168°2024-12-05 17:30:56.612Z98.955° ESE
|